Portada
METAR-TAF:

METAR-TAF

Aeroports :

Eastern Slopes Regional Airport

Fryeburg, Maine, Estats Units d'Amèrica

latitud: 43-59-21N, longitud: 070-57-01W, altitud: 137 m

Observació

L'informe es va fer fa 26 minuts, a les 11:02 UTC
Vent calma
Temperatura 1°C
Humitat 100%
Pressió 1013 hPa
Visibilitat: 0.4 km
boira

METAR: KIZG 291102Z AUTO 00000KT 1/4SM FG VV002 01/01 A2991 RMK AO2 T00110006

Hora: 07:28 (11:28 UTC)


TAF: manca

Observacions i pronòstics meteorològics de més de 4000 aeroports (METAR i TAF).

Les estacions disponibles són els punts grocs i vermells al mapa.

Posi el ratolí al punt desitjat per veure el nom de l'estació.

Feu clic per veure les observacions i els pronòstics meteorològics.

Per canviar el mapa: feu clic els botons verds amb una creu de color negre per apropar; al botó verd amb un guió per allunyar la imatge; o en les fletxes verdes per a mapes adjacents.


METAR-TAF: